• Em Portugal
  • Lista de países
  • Para 7 dias
  • Temperatura da água
  • Mapas de satélite
  • Mapa do tempo
  • Widgets de tempo
  • user-avatar
    Iniciar Sessão

    Previsão horária em Saurimo

    Hoje, 24 Fevereiro, Sábado

    Tempo Temperatura Precipitação Vento Pressão Humidade
    00:00 +21°C° 0 mm 1 m/s 669 mmHg 96%
    01:00 +20°C° 0 mm 1 m/s 669 mmHg 97%
    02:00 +20°C° 0 mm 1 m/s 669 mmHg 97%
    03:00 +20°C° 0 mm 1 m/s 669 mmHg 97%
    04:00 +19°C° 0 mm 1 m/s 668 mmHg 97%
    05:00 +20°C° 0 mm 1 m/s 669 mmHg 95%
    06:00 +20°C° 0 mm 1 m/s 669 mmHg 93%
    07:00 +22°C° 0 mm 1 m/s 670 mmHg 90%
    08:00 +23°C° 0,5 mm 2 m/s 670 mmHg 84%
    09:00 +25°C° 0,5 mm 2 m/s 670 mmHg 78%
    10:00 +27°C° 0,5 mm 2 m/s 670 mmHg 72%
    11:00 +27°C° 1,1 mm 2 m/s 670 mmHg 70%
    12:00 +28°C° 1,1 mm 2 m/s 669 mmHg 69%
    13:00 +28°C° 1,1 mm 2 m/s 669 mmHg 67%
    14:00 +28°C° 1 mm 2 m/s 669 mmHg 70%
    15:00 +28°C° 1 mm 2 m/s 668 mmHg 73%
    16:00 +27°C° 1 mm 1 m/s 668 mmHg 76%
    17:00 +26°C° 0,3 mm 1 m/s 668 mmHg 81%
    18:00 +24°C° 0,3 mm 1 m/s 668 mmHg 85%
    19:00 +23°C° 0,3 mm 1 m/s 668 mmHg 90%
    20:00 +22°C° 0 mm 1 m/s 668 mmHg 91%
    21:00 +22°C° 0 mm 1 m/s 669 mmHg 92%
    22:00 +21°C° 0 mm 1 m/s 669 mmHg 93%
    23:00 +21°C° 0,6 mm 1 m/s 669 mmHg 94%

    Amanhã, 25 Fevereiro, Domingo

    Tempo Temperatura Precipitação Vento Pressão Humidade
    00:00 +21°C° 0,6 mm 1 m/s 669 mmHg 95%
    01:00 +21°C° 0,6 mm 1 m/s 669 mmHg 95%
    02:00 +21°C° 0,4 mm 1 m/s 669 mmHg 95%
    03:00 +20°C° 0,4 mm 1 m/s 669 mmHg 95%
    04:00 +20°C° 0,4 mm 1 m/s 669 mmHg 94%
    05:00 +21°C° 0 mm 1 m/s 669 mmHg 94%
    06:00 +21°C° 0 mm 1 m/s 669 mmHg 93%
    07:00 +21°C° 0 mm 1 m/s 669 mmHg 93%
    08:00 +22°C° 0,1 mm 1 m/s 670 mmHg 90%
    09:00 +23°C° 0,1 mm 1 m/s 670 mmHg 87%
    10:00 +24°C° 0,1 mm 2 m/s 670 mmHg 83%
    11:00 +25°C° 0 mm 2 m/s 670 mmHg 77%
    12:00 +26°C° 0 mm 2 m/s 670 mmHg 71%
    13:00 +28°C° 0 mm 2 m/s 669 mmHg 64%
    14:00 +28°C° 0 mm 2 m/s 669 mmHg 66%
    15:00 +28°C° 0 mm 2 m/s 668 mmHg 67%
    16:00 +27°C° 0 mm 2 m/s 668 mmHg 69%
    17:00 +26°C° 0,6 mm 2 m/s 668 mmHg 76%
    18:00 +24°C° 0,6 mm 2 m/s 668 mmHg 83%
    19:00 +21°C° 0,6 mm 2 m/s 668 mmHg 91%
    20:00 +21°C° 0,3 mm 2 m/s 669 mmHg 92%
    21:00 +20°C° 0,3 mm 2 m/s 669 mmHg 94%
    22:00 +20°C° 0,3 mm 2 m/s 669 mmHg 96%
    23:00 +20°C° 0 mm 2 m/s 669 mmHg 96%

    Depois de amanhã, 26 Fevereiro, Segunda-feira

    Tempo Temperatura Precipitação Vento Pressão Humidade
    00:00 +19°C° 0 mm 2 m/s 668 mmHg 96%
    01:00 +19°C° 0 mm 2 m/s 668 mmHg 97%
    02:00 +19°C° 0 mm 2 m/s 668 mmHg 96%
    03:00 +19°C° 0 mm 2 m/s 668 mmHg 96%
    04:00 +19°C° 0 mm 2 m/s 667 mmHg 96%
    05:00 +19°C° 0 mm 2 m/s 668 mmHg 94%
    06:00 +19°C° 0 mm 2 m/s 668 mmHg 93%
    07:00 +19°C° 0 mm 2 m/s 669 mmHg 92%
    08:00 +21°C° 0,1 mm 2 m/s 669 mmHg 84%
    09:00 +25°C° 0,1 mm 3 m/s 670 mmHg 76%
    10:00 +27°C° 0,1 mm 3 m/s 670 mmHg 68%
    11:00 +27°C° 1,3 mm 3 m/s 670 mmHg 69%
    12:00 +28°C° 1,3 mm 3 m/s 669 mmHg 69%
    13:00 +28°C° 1,3 mm 2 m/s 668 mmHg 70%
    14:00 +27°C° 1,5 mm 2 m/s 668 mmHg 74%
    15:00 +27°C° 1,5 mm 2 m/s 667 mmHg 79%
    16:00 +26°C° 1,5 mm 2 m/s 667 mmHg 83%
    17:00 +25°C° 0,4 mm 1 m/s 667 mmHg 86%
    18:00 +23°C° 0,4 mm 1 m/s 668 mmHg 89%
    19:00 +22°C° 0,4 mm 1 m/s 668 mmHg 93%
    20:00 +22°C° 0 mm 1 m/s 668 mmHg 93%
    21:00 +21°C° 0 mm 1 m/s 669 mmHg 94%
    22:00 +21°C° 0 mm 1 m/s 669 mmHg 94%
    23:00 +21°C° 0,4 mm 1 m/s 669 mmHg 95%

    27 Fevereiro, Terça-feira

    Tempo Temperatura Precipitação Vento Pressão Humidade
    00:00 +21°C° 0,4 mm 1 m/s 669 mmHg 96%
    01:00 +21°C° 0,4 mm 1 m/s 668 mmHg 96%
    02:00 +20°C° 0 mm 1 m/s 668 mmHg 97%
    03:00 +20°C° 0 mm 1 m/s 668 mmHg 97%
    04:00 +20°C° 0 mm 1 m/s 668 mmHg 97%
    05:00 +21°C° 0 mm 1 m/s 668 mmHg 96%
    06:00 +21°C° 0 mm 1 m/s 669 mmHg 95%
    07:00 +21°C° 0 mm 1 m/s 669 mmHg 94%
    08:00 +23°C° 0,1 mm 1 m/s 669 mmHg 87%
    09:00 +25°C° 0,1 mm 1 m/s 670 mmHg 79%
    10:00 +27°C° 0,1 mm 1 m/s 670 mmHg 71%
    11:00 +29°C° 0,6 mm 1 m/s 670 mmHg 67%
    12:00 +30°C° 0,6 mm 1 m/s 669 mmHg 62%
    13:00 +31°C° 0,6 mm 1 m/s 669 mmHg 57%
    14:00 +29°C° 0,8 mm 1 m/s 668 mmHg 65%
    15:00 +28°C° 0,8 mm 2 m/s 667 mmHg 73%
    16:00 +26°C° 0,8 mm 2 m/s 667 mmHg 82%
    17:00 +25°C° 0,5 mm 2 m/s 667 mmHg 86%
    18:00 +24°C° 0,5 mm 2 m/s 668 mmHg 90%
    19:00 +21°C° 0,5 mm 2 m/s 668 mmHg 94%
    20:00 +21°C° 0,6 mm 2 m/s 669 mmHg 94%
    21:00 +21°C° 0,6 mm 2 m/s 669 mmHg 94%
    22:00 +20°C° 0,6 mm 2 m/s 670 mmHg 94%
    23:00 +20°C° 0,2 mm 2 m/s 669 mmHg 94%

    28 Fevereiro, Quarta-feira

    Tempo Temperatura Precipitação Vento Pressão Humidade
    00:00 +20°C° 0,2 mm 2 m/s 669 mmHg 94%
    01:00 +20°C° 0,2 mm 2 m/s 668 mmHg 95%
    02:00 +19°C° 0,1 mm 2 m/s 668 mmHg 95%
    03:00 +19°C° 0,1 mm 2 m/s 668 mmHg 96%
    04:00 +19°C° 0,1 mm 2 m/s 668 mmHg 96%
    05:00 +19°C° 0 mm 2 m/s 669 mmHg 96%
    06:00 +19°C° 0 mm 2 m/s 669 mmHg 95%
    07:00 +20°C° 0 mm 2 m/s 670 mmHg 94%
    08:00 +21°C° 0,1 mm 2 m/s 670 mmHg 92%
    09:00 +21°C° 0,1 mm 2 m/s 670 mmHg 89%
    10:00 +23°C° 0,1 mm 2 m/s 670 mmHg 87%
    11:00 +24°C° 0,5 mm 3 m/s 670 mmHg 82%
    12:00 +26°C° 0,5 mm 3 m/s 669 mmHg 77%
    13:00 +27°C° 0,5 mm 4 m/s 668 mmHg 72%
    14:00 +27°C° 0,8 mm 3 m/s 668 mmHg 73%
    15:00 +27°C° 0,8 mm 3 m/s 668 mmHg 75%
    16:00 +27°C° 0,8 mm 3 m/s 668 mmHg 77%
    17:00 +25°C° 1 mm 2 m/s 668 mmHg 82%
    18:00 +24°C° 1 mm 2 m/s 668 mmHg 87%
    19:00 +21°C° 1 mm 2 m/s 668 mmHg 93%
    20:00 +21°C° 1,5 mm 2 m/s 669 mmHg 93%
    21:00 +20°C° 1,5 mm 2 m/s 669 mmHg 94%
    22:00 +20°C° 1,5 mm 3 m/s 670 mmHg 95%
    23:00 +20°C° 0,4 mm 2 m/s 669 mmHg 95%

    1 Março, Quinta-feira

    Tempo Temperatura Precipitação Vento Pressão Humidade
    00:00 +20°C° 0,4 mm 2 m/s 669 mmHg 96%
    01:00 +20°C° 0,4 mm 2 m/s 669 mmHg 97%
    02:00 +19°C° 0,3 mm 2 m/s 669 mmHg 97%
    03:00 +19°C° 0,3 mm 2 m/s 669 mmHg 97%
    04:00 +20°C° 0,3 mm 1 m/s 668 mmHg 97%
    05:00 +19°C° 0,1 mm 2 m/s 669 mmHg 97%
    06:00 +20°C° 0,1 mm 2 m/s 669 mmHg 96%
    07:00 +20°C° 0,1 mm 2 m/s 669 mmHg 95%
    08:00 +21°C° 0,7 mm 2 m/s 670 mmHg 90%
    09:00 +24°C° 0,7 mm 2 m/s 670 mmHg 85%
    10:00 +26°C° 0,7 mm 2 m/s 670 mmHg 81%
    11:00 +26°C° 1,1 mm 2 m/s 670 mmHg 78%
    12:00 +27°C° 1,1 mm 2 m/s 669 mmHg 75%
    13:00 +27°C° 1,1 mm 2 m/s 669 mmHg 73%
    14:00 +27°C° 1 mm 2 m/s 668 mmHg 75%
    15:00 +27°C° 1 mm 2 m/s 668 mmHg 78%
    16:00 +27°C° 1 mm 2 m/s 667 mmHg 80%
    17:00 +25°C° 0,5 mm 2 m/s 667 mmHg 84%
    18:00 +23°C° 0,5 mm 2 m/s 668 mmHg 89%
    19:00 +22°C° 0,5 mm 1 m/s 668 mmHg 93%
    20:00 +22°C° 0,1 mm 1 m/s 668 mmHg 93%
    21:00 +21°C° 0,1 mm 1 m/s 668 mmHg 94%
    22:00 +21°C° 0,1 mm 1 m/s 669 mmHg 94%
    23:00 +21°C° 0 mm 1 m/s 668 mmHg 95%
    Mostrar mais